Estación de San Ignacio

Ultimos registro cada 15 minutos 53
Estación Fecha / Hora Temperatura Humedad Lluvia Velocidad Dirección Radiación Presion
53 San Ignacio 08-05-2026 13:45 10,7 89 0 0 126 77 1036,5
52 San Ignacio 08-05-2026 13:30 10,7 89 0 0 126 123 1036,4
51 San Ignacio 08-05-2026 13:15 10,5 90 0 0,4 126 146 1036,6
50 San Ignacio 08-05-2026 13:00 10,4 90 0 0 126 114 1036,9
49 San Ignacio 08-05-2026 12:45 10,2 90 0 0 126 176 1037,1
48 San Ignacio 08-05-2026 12:30 9,8 90 0 0,4 126 142 1037,4
47 San Ignacio 08-05-2026 12:15 9,7 90 0 0,9 126 149 1037,5
46 San Ignacio 08-05-2026 12:00 9,6 90 0 0,4 126 113 1037,4
45 San Ignacio 08-05-2026 11:45 9,4 90 0 0,4 126 125 1037,5
44 San Ignacio 08-05-2026 11:30 9,3 90 0 0,9 126 142 1037,5
43 San Ignacio 08-05-2026 11:15 9 90 0 0 126 123 1037,5
42 San Ignacio 08-05-2026 11:00 8,9 90 0 0,4 126 139 1037,5
41 San Ignacio 08-05-2026 10:00 8,5 91 0 0,4 126 58 1037,7
40 San Ignacio 08-05-2026 09:45 8,4 91 0 0,9 121 74 1037,7
39 San Ignacio 08-05-2026 09:30 8,4 91 0 0,9 118 44 1037,4
38 San Ignacio 08-05-2026 09:15 8,2 90 0 1,3 113 56 1037,4
37 San Ignacio 08-05-2026 09:00 8,1 90 0 0,9 94 49 1037,7
36 San Ignacio 08-05-2026 08:45 7,9 90 0 0,4 89 25 1037,7
35 San Ignacio 08-05-2026 08:30 7,8 90 0 0 88 21 1037,5
34 San Ignacio 08-05-2026 08:15 7,8 90 0 0 88 14 1037,4
33 San Ignacio 08-05-2026 08:00 7,7 89 0 0 88 5 1037,2
32 San Ignacio 08-05-2026 07:45 7,8 88 0 0 88 0 1037,4
31 San Ignacio 08-05-2026 07:30 7,9 87 0 0,4 88 0 1037,1
30 San Ignacio 08-05-2026 07:15 7,9 87 0 0 88 0 1036,8
29 San Ignacio 08-05-2026 07:00 7,9 86 0 0 54 0 1036,9
28 San Ignacio 08-05-2026 06:45 7,8 86 0 0 54 0 1036,8
27 San Ignacio 08-05-2026 06:30 7,7 87 0 0 53 0 1037
26 San Ignacio 08-05-2026 06:15 7,7 87 0 0,4 52 0 1037,1
25 San Ignacio 08-05-2026 06:00 7,7 87 0 0 52 0 1037,3
24 San Ignacio 08-05-2026 05:45 7,6 88 0 0 52 0 1037,7
23 San Ignacio 08-05-2026 05:30 7,5 88 0 0 52 0 1037,6
22 San Ignacio 08-05-2026 05:15 7,6 88 0 0 52 0 1037,8
21 San Ignacio 08-05-2026 05:00 7,8 88 0,3 0 52 0 1038,4
20 San Ignacio 08-05-2026 04:45 7,8 87 0 0 52 0 1038,6
19 San Ignacio 08-05-2026 04:30 7,8 87 0 0 52 0 1038,1
18 San Ignacio 08-05-2026 04:15 8 86 0 0 52 0 1038,1
17 San Ignacio 08-05-2026 04:00 8 86 0 0 52 0 1038,1
16 San Ignacio 08-05-2026 03:45 7,9 86 0 0 52 0 1038,4
15 San Ignacio 08-05-2026 03:30 7,9 87 0 0 52 0 1038,9
14 San Ignacio 08-05-2026 03:15 7,9 87 0 0 52 0 1039
13 San Ignacio 08-05-2026 03:00 7,9 87 0 0 52 0 1039,2
12 San Ignacio 08-05-2026 02:45 7,8 87 0 0 52 0 1039,3
11 San Ignacio 08-05-2026 02:30 7,8 87 0 0 52 0 1039,6
10 San Ignacio 08-05-2026 02:15 7,8 87 0 0 52 0 1039,8
9 San Ignacio 08-05-2026 02:00 7,8 88 0 0 52 0 1039,9
8 San Ignacio 08-05-2026 01:45 7,8 88 0 0 52 0 1040,3
7 San Ignacio 08-05-2026 01:30 7,8 88 0 0 52 0 1040,6
6 San Ignacio 08-05-2026 01:15 7,7 88 0 0 52 0 1040,8
5 San Ignacio 08-05-2026 01:00 7,7 88 0 0 52 0 1040,6
4 San Ignacio 08-05-2026 00:45 7,7 89 0 0 52 0 1040,9
3 San Ignacio 08-05-2026 00:30 7,7 89 0 0 52 0 1041,1
2 San Ignacio 08-05-2026 00:15 7,6 89 0 0 52 0 1041,2
1 San Ignacio 08-05-2026 00:00 7,6 89 0 0 52 0 1041,5